Regional Weather Roundup
Issued by NWS Charleston, SC

Current Version | Previous Version | Text Only | Print | Product List | Glossary Off
Versions: 1 2 3 4 5 6 7 8 9 10 11 12 13 14 15 16 17 18 19 20 21 22 23 24 25 26 27 28 29 30 31 32 33 34 35 36 37 38 39 40 41 42 43 44 45 46 47 48 49 50

000
ASUS42 KCHS 231512
RWRCHS

REGIONAL WEATHER ROUNDUP
NATIONAL WEATHER SERVICE CHARLESTON SC
1000 AM EST MON JAN 23 2017

NOTE: "FAIR" INDICATES FEW OR NO CLOUDS BELOW 12,000 FEET WITH NO
SIGNIFICANT WEATHER AND/OR OBSTRUCTIONS TO VISIBILITY.

NOT ALL STATIONS ARE QUALITY CONTROLLED. USE DATA WITH CAUTION...
ESPECIALLY DEWPOINT OBSERVATIONS.

SCZ027-030-031-034>040-042>050-231600-
...SOUTHEAST SOUTH CAROLINA...

CITY           SKY/WX    TMP DP  RH WIND       PRES   REMARKS
N CHARLESTON   LGT RAIN  55  50  83 SW9G20    29.32R
WATERFRONT PRK   N/A     58  52  80 S12       29.31R
MOUNT PLEASANT LGT RAIN  57  50  77 S7        29.32S
JOHNS ISLAND   LGT RAIN  54  52  94 SW10G18   29.33R
PINOPOLIS        N/A     55  50  82 SW9       29.23R
MONCKS CORNER  LGT RAIN  54  48  82 SW7       29.32R
SUMMERVILLE    RAIN     N/A N/A N/A S3        29.32S
BEAUFORT MCAS  LGT RAIN  53  51  93 SW10      29.32R FOG
BEAUFORT ARPT  DRIZZLE   52  50  93 SW7G17    29.33R
HILTON HEAD IS LGT RAIN  52  50  93 SW10      29.34
WALTERBORO     DRIZZLE   52  50  93 SW7       29.33R
ALLENDALE      LGT RAIN  52  52 100 CALM      29.29S VSB 3/4

...SOUTHERN MIDLANDS AND PEE DEE...

CITY           SKY/WX    TMP DP  RH WIND       PRES   REMARKS
GEORGETOWN     FAIR      57  48  72 W13       29.33R
KINGSTREE      FAIR      55  46  71 SW8       29.31R
ORANGEBURG     LGT RAIN  51  50  96 SW6       29.30S
BARNWELL       CLOUDY    54  54 100 SW5       29.30R
AIKEN          CLOUDY    50  46  87 SW7       29.32R
MANNING        LGT RAIN  52  39  62 SW8       29.31R
COLUMBIA       CLOUDY    53  49  86 SW6       29.28S
SUMTER         LGT RAIN  52  48  87 S6        29.28R FOG
FLORENCE       CLOUDY    56  50  80 SW9       29.30R
MYRTLE BEACH   SUNNY     61  52  72 SW14      29.32F
N MYRTLE BEACH SUNNY     58  52  80 S8        29.31S

$$

GAZ063-065-086>088-099>101-113>116-118-119-134>141-150-231600-
...SOUTHEAST GEORGIA...

CITY           SKY/WX    TMP DP  RH WIND       PRES   REMARKS
SAVANNAH ARPT  LGT RAIN  52  49  89 SW10      29.33R
HUNTER AAF     CLOUDY    52  52 100 SW8       29.31R
FORT STEWART   LGT RAIN  54  48  82 SW14      29.31S
STATESBORO     CLOUDY    53  32  45 W8        29.32R
SYLVANIA       CLOUDY   N/A N/A N/A SW8       29.32R
CLAXTON        CLOUDY   N/A N/A N/A SW7       29.32R

...CSRA...CENTRAL AND FAR SOUTHEAST GEORGIA...

CITY           SKY/WX    TMP DP  RH WIND       PRES   REMARKS
THOMSON        PTSUNNY   54  51  89 NW6       29.35R
AUGUSTA-BUSH   PTSUNNY   55  49  80 W7        29.30R
AUGUSTA-DANIEL CLOUDY    53  46  77 SW8       29.30R
SWAINSBORO     CLOUDY    54  52  94 MISG      29.33R
VIDALIA        CLOUDY    54  54 100 W10G17    29.34R
EASTMAN        CLOUDY    56  42  58 W10G18    29.41R
HAZLEHURST     CLOUDY    60  55  84 W15G25    29.35R
ALMA           PTSUNNY   58  52  80 W14G21    29.37R
WAYCROSS       CLOUDY    59  56  90 W20G32    29.40R
JESUP          CLOUDY    55  46  71 W12G23    29.36R
BAXLEY         CLOUDY    57  55  94 W12       29.35R
BRUNSWICK      CLOUDY    61  52  72 W21G29    29.38R
SAINT SIMONS   PTSUNNY   59  48  67 SW20G33   29.37R

$$

SCZ027-028-034-036>038-045-046-048>050-GAZ119-141-231600-
...LAKE AND SUPPLEMENTAL COASTAL OBSERVATIONS...

STATION/POSITION TIME  TEMP    WIND        PRES    WAVE   SWELL
                       AIR SEA DIR/SP/G            HT/PER HT/PER/DIR
                 (UTC) (F)     (DEG/KT/KT) (MB)    (FT/S) (FT/S/D)
WINYAH BAY       1345   58     220/  9      992.0
LAKE MURRAY      NOT AVBL
ACE BASIN NERRS  1345   56     190/  2      992.0
FORT PULASKI     1436   53 59  240/  7/ 12  993.3R
SAPELO ISLAND    1400   56     230/ 20      993.0

$$

ANZ835-935-AMZ111-154-330-350-352-354-370-450-454-472-231600-
...C-MAN AND BUOY OBSERVATIONS...

STATION/POSITION TIME  TEMP    WIND        PRES    WAVE   SWELL
                       AIR SEA DIR/SP/G            HT/PER HT/PER/DIR
                 (UTC) (F)     (DEG/KT/KT) (MB)    (FT/S) (FT/S/D)
BUOY 41004       1450   63 67  220/ 17/ 21  992.6    8/10   7/170/10
BUOY 41008       1450   58 59  220/ 25/ 31  993.3    5/ 5   2/220/11
FOLLY BEACH CMAN NOT AVBL
CAPERS NEARSHORE 1408   57 56  240/ 14/ 17  992.4S
FRIPP NEARSHORE  1408   57 58  240/ 21/ 27  993.0R


STATION/POSITION TIME  TEMP    WIND        PRES    WAVE   SWELL
                       AIR SEA DIR/SP/G            HT/PER HT/PER/DIR
                 (UTC) (F)     (DEG/KT/KT) (MB)    (FT/S) (FT/S/D)
5E ST. MARYS GA  1430      62                N/A     4/ 3   2/100/13
FRYING PAN BUOY  1450   65 69  210/ 10/ 14  992.8   10/10  10/170/10
BUOY 41025       1450   68 76  230/ 23/ 27  992.8R   7/14   5/ 80/14
CAPE LOOKOUT NC  NOT AVBL
BUOY 41002       1450   70 71  180/ 14/ 17  996.4   15/11  15/190/11
BUOY 41010       NOT AVBL
ST AUGUSTINE FL  1500   62 64  270/ 17/ 23  998.5R


$$




USA.gov is the U.S. government's official web portal to all federal, state and local government web resources and services.